NKS1252 KORF-KLGA

Flight info

Callsign NKS1252
Flight time N/A
Altitude 37000
Route NUTIY1 HYTRA PROUD2
Aircraft A20N/M-SDE2E3FGHIRWXY/LB1

Departure

Time 2026-04-30 14:23
Airport Norfolk International Airport (KORF)

Arrival

Time N/A
Airport LaGuardia Airport (KLGA)
Time Latitude Longitude Altitude Speed Heading
2026-04-30 14:14 36.89715 -76.20188 39 ft 0 kts 221°
2026-04-30 14:16 36.89718 -76.20185 39 ft 2 kts 221°
2026-04-30 14:17 36.89732 -76.20170 36 ft 4 kts 221°
2026-04-30 14:17 36.89753 -76.20146 36 ft 5 kts 221°
2026-04-30 14:17 36.89780 -76.20132 37 ft 5 kts 166°
2026-04-30 14:17 36.89784 -76.20125 38 ft 9 kts 115°
2026-04-30 14:18 36.89746 -76.20018 40 ft 11 kts 117°
2026-04-30 14:18 36.89648 -76.20020 41 ft 24 kts 219°
2026-04-30 14:18 36.89218 -76.20431 39 ft 52 kts 217°
2026-04-30 14:19 36.88721 -76.20874 42 ft 24 kts 218°
2026-04-30 14:19 36.88666 -76.20897 44 ft 0 kts 173°
2026-04-30 14:22 36.88664 -76.20897 44 ft 2 kts 170°
2026-04-30 14:22 36.88658 -76.20761 43 ft 0 kts 37°
2026-04-30 14:22 36.88753 -76.20673 43 ft 57 kts 37°
2026-04-30 14:23 36.90260 -76.19183 611 ft 185 kts 37°
2026-04-30 14:23 36.92605 -76.16978 2109 ft 237 kts 25°
2026-04-30 14:24 36.95846 -76.16703 3536 ft 246 kts 332°
2026-04-30 14:24 36.97070 -76.18147 4037 ft 246 kts 297°
2026-04-30 14:25 36.97214 -76.22381 5049 ft 253 kts 259°
2026-04-30 14:25 36.96403 -76.26836 6030 ft 281 kts 258°
2026-04-30 14:26 36.95544 -76.31691 6963 ft 288 kts 259°
2026-04-30 14:26 36.95116 -76.34133 7426 ft 287 kts 259°
2026-04-30 14:26 36.94614 -76.39076 8397 ft 297 kts 269°
2026-04-30 14:27 36.94592 -76.41739 8924 ft 312 kts 270°
2026-04-30 14:27 36.94585 -76.44468 9446 ft 316 kts 270°
2026-04-30 14:27 36.94577 -76.47220 9953 ft 316 kts 270°
2026-04-30 14:28 36.94792 -76.52786 10923 ft 333 kts 278°
2026-04-30 14:28 36.95481 -76.55597 11429 ft 344 kts 290°
2026-04-30 14:28 36.96697 -76.58213 11931 ft 354 kts 301°
2026-04-30 14:28 36.98242 -76.60645 12443 ft 360 kts 304°
2026-04-30 14:29 37.01508 -76.65475 13485 ft 367 kts 304°
2026-04-30 14:29 37.04309 -76.69646 14333 ft 389 kts 304°
2026-04-30 14:30 37.10246 -76.78539 16731 ft 408 kts 304°
2026-04-30 14:31 37.13923 -76.84069 18194 ft 418 kts 304°
2026-04-30 14:31 37.17656 -76.89691 19681 ft 419 kts 304°
2026-04-30 14:31 37.19518 -76.92497 20544 ft 418 kts 303°
2026-04-30 14:32 37.23231 -76.98107 22107 ft 418 kts 302°
2026-04-30 14:32 37.25092 -77.00924 22815 ft 421 kts 301°
2026-04-30 14:32 37.27035 -77.03703 23497 ft 427 kts 305°
2026-04-30 14:33 37.29311 -77.06166 23958 ft 439 kts 314°
2026-04-30 14:33 37.35069 -77.09361 24889 ft 474 kts 337°
2026-04-30 14:33 37.38412 -77.09796 25355 ft 494 kts 350°
2026-04-30 14:34 37.41889 -77.09278 25847 ft 514 kts
2026-04-30 14:34 37.45351 -77.07954 26272 ft 525 kts 11°
2026-04-30 14:34 37.48806 -77.06397 26681 ft 530 kts 12°
2026-04-30 14:34 37.52277 -77.04798 27069 ft 531 kts 12°
2026-04-30 14:35 37.58055 -77.02153 27708 ft 532 kts 12°
2026-04-30 14:35 37.62714 -77.00037 28235 ft 532 kts 12°
2026-04-30 14:35 37.66198 -76.98458 28638 ft 532 kts 12°
2026-04-30 14:36 37.69678 -76.96882 29050 ft 532 kts 12°
2026-04-30 14:36 37.73160 -76.95305 29469 ft 532 kts 12°
2026-04-30 14:36 37.76645 -76.93726 29893 ft 532 kts 12°
2026-04-30 14:36 37.80124 -76.92149 30270 ft 532 kts 12°
2026-04-30 14:37 37.83602 -76.90571 30625 ft 531 kts 12°
2026-04-30 14:37 37.87072 -76.88994 30991 ft 529 kts 12°
2026-04-30 14:37 37.90531 -76.87421 31329 ft 527 kts 12°
2026-04-30 14:37 37.93967 -76.85807 31719 ft 529 kts 15°
2026-04-30 14:38 37.97240 -76.83563 32096 ft 544 kts 29°
2026-04-30 14:38 38.00132 -76.80404 32488 ft 552 kts 40°
2026-04-30 14:38 38.02806 -76.76911 32880 ft 553 kts 43°
2026-04-30 14:38 38.05445 -76.73357 33278 ft 552 kts 43°
2026-04-30 14:39 38.08038 -76.69860 33672 ft 551 kts 42°
2026-04-30 14:39 38.10665 -76.66326 34052 ft 549 kts 42°
2026-04-30 14:39 38.13284 -76.62809 34458 ft 547 kts 41°
2026-04-30 14:40 38.18487 -76.55827 35170 ft 541 kts 41°
2026-04-30 14:40 38.21068 -76.52362 35540 ft 539 kts 41°
2026-04-30 14:40 38.23641 -76.48905 35884 ft 537 kts 41°
2026-04-30 14:40 38.26206 -76.45456 36263 ft 536 kts 41°
2026-04-30 14:41 38.28800 -76.42060 36637 ft 532 kts 37°
2026-04-30 14:41 38.31603 -76.39053 36858 ft 525 kts 31°
2026-04-30 14:41 38.37370 -76.33407 36880 ft 522 kts 30°
2026-04-30 14:42 38.42205 -76.28707 36877 ft 522 kts 30°
2026-04-30 14:42 38.47970 -76.23074 36875 ft 522 kts 31°
2026-04-30 14:43 38.53728 -76.17427 36911 ft 522 kts 31°
2026-04-30 14:43 38.59482 -76.11770 36869 ft 522 kts 31°
2026-04-30 14:44 38.65277 -76.06173 36883 ft 521 kts 29°
2026-04-30 14:44 38.71136 -76.00713 36874 ft 521 kts 29°
2026-04-30 14:45 38.76991 -75.95246 36871 ft 521 kts 29°
2026-04-30 14:45 38.82835 -75.89772 36860 ft 521 kts 29°
2026-04-30 14:46 38.88643 -75.84317 36863 ft 521 kts 29°
2026-04-30 14:46 38.94484 -75.78819 36883 ft 521 kts 30°
2026-04-30 14:47 39.00318 -75.73309 36771 ft 521 kts 30°
2026-04-30 14:47 39.03235 -75.70547 36330 ft 521 kts 30°
2026-04-30 14:47 39.06158 -75.67779 35716 ft 523 kts 30°
2026-04-30 14:48 39.09099 -75.64992 35107 ft 526 kts 30°
2026-04-30 14:48 39.12056 -75.62188 34516 ft 530 kts 30°
2026-04-30 14:48 39.15035 -75.59359 33968 ft 534 kts 30°
2026-04-30 14:48 39.18037 -75.56503 33320 ft 537 kts 30°
2026-04-30 14:49 39.21047 -75.53637 32651 ft 539 kts 30°
2026-04-30 14:49 39.24087 -75.50787 32004 ft 540 kts 29°
2026-04-30 14:49 39.27177 -75.48028 31373 ft 541 kts 28°
2026-04-30 14:49 39.30292 -75.45276 30756 ft 545 kts 28°
2026-04-30 14:50 39.36565 -75.39721 29512 ft 543 kts 28°
2026-04-30 14:50 39.39660 -75.36967 28807 ft 536 kts 28°
2026-04-30 14:51 39.45620 -75.31646 27457 ft 505 kts 28°
2026-04-30 14:51 39.48438 -75.29128 26812 ft 492 kts 28°
2026-04-30 14:51 39.53980 -75.24059 25581 ft 478 kts 30°
2026-04-30 14:52 39.56650 -75.21557 24823 ft 470 kts 30°
2026-04-30 14:52 39.61853 -75.16675 22894 ft 459 kts 31°
2026-04-30 14:52 39.64458 -75.14228 21810 ft 453 kts 31°
2026-04-30 14:53 39.69551 -75.09573 19171 ft 452 kts 28°
2026-04-30 14:53 39.72174 -75.07319 17904 ft 450 kts 28°
2026-04-30 14:54 39.77272 -75.02938 16156 ft 422 kts 29°
2026-04-30 14:54 39.82000 -74.98862 15135 ft 405 kts 28°
2026-04-30 14:55 39.86687 -74.94762 14012 ft 405 kts 30°
2026-04-30 14:55 39.88989 -74.92680 13418 ft 401 kts 30°
2026-04-30 14:55 39.93281 -74.88232 12992 ft 388 kts 43°
2026-04-30 14:56 39.96881 -74.83146 12276 ft 377 kts 45°
2026-04-30 14:56 40.00358 -74.78139 11348 ft 367 kts 45°
2026-04-30 14:57 40.02057 -74.75697 10850 ft 360 kts 45°
2026-04-30 14:57 40.05362 -74.70948 10068 ft 343 kts 46°
2026-04-30 14:58 40.08424 -74.66542 10001 ft 319 kts 46°
2026-04-30 14:58 40.09914 -74.64401 10002 ft 319 kts 46°
2026-04-30 14:58 40.12890 -74.60119 10008 ft 318 kts 46°
2026-04-30 14:59 40.15644 -74.56152 10026 ft 311 kts 46°
2026-04-30 15:00 40.15701 -74.56068 10028 ft 310 kts 46°
2026-04-30 15:00 40.18436 -74.52122 9997 ft 312 kts 46°
2026-04-30 15:01 40.21528 -74.47892 10010 ft 320 kts 42°
2026-04-30 15:01 40.23101 -74.45898 10012 ft 318 kts 42°
2026-04-30 15:01 40.26280 -74.41891 10014 ft 317 kts 42°
2026-04-30 15:02 40.27867 -74.39888 10014 ft 317 kts 42°
2026-04-30 15:02 40.29455 -74.37882 10020 ft 317 kts 42°
2026-04-30 15:03 40.34214 -74.31859 10017 ft 318 kts 42°
2026-04-30 15:03 40.37395 -74.27825 10017 ft 318 kts 42°
2026-04-30 15:04 40.40571 -74.23793 10012 ft 318 kts 42°
2026-04-30 15:04 40.45338 -74.17729 10015 ft 318 kts 43°
2026-04-30 15:05 40.50093 -74.11668 10015 ft 317 kts 43°
2026-04-30 15:06 40.53398 -74.08088 10005 ft 292 kts 31°
2026-04-30 15:06 40.56621 -74.05349 10012 ft 262 kts 30°
2026-04-30 15:07 40.59630 -74.02814 10022 ft 258 kts 30°
2026-04-30 15:07 40.62643 -74.00242 10014 ft 259 kts 36°
2026-04-30 15:08 40.64431 -73.96172 9705 ft 269 kts 74°
2026-04-30 15:08 40.66319 -73.88994 8158 ft 283 kts 72°
2026-04-30 15:09 40.67786 -73.84155 7160 ft 287 kts 64°
2026-04-30 15:09 40.69858 -73.79667 6179 ft 288 kts 47°
2026-04-30 15:10 40.73048 -73.76599 5154 ft 283 kts 25°
2026-04-30 15:11 40.79806 -73.72271 3171 ft 250 kts 26°
2026-04-30 15:11 40.82710 -73.70113 2518 ft 224 kts 27°
2026-04-30 15:12 40.86379 -73.67631 2493 ft 184 kts
2026-04-30 15:13 40.88720 -73.68482 2497 ft 178 kts 322°
2026-04-30 15:14 40.91362 -73.73600 1930 ft 164 kts 271°
2026-04-30 15:14 40.89924 -73.77528 1895 ft 166 kts 220°
2026-04-30 15:16 40.85325 -73.81451 1649 ft 146 kts 214°
2026-04-30 15:17 40.81942 -73.84253 826 ft 143 kts 213°
2026-04-30 15:18 40.77807 -73.87679 21 ft 121 kts 211°
2026-04-30 15:19 40.77330 -73.87997 22 ft 0 kts 180°